Weather History for Chicago Lansing, IL

Change the Weather History Date:

Friday, March 21, 2014

  Actual Average (KMDW) Record (KMDW)
Temperature  
Mean Temperature 43 °F 41 °F  
Max Temperature 56 °F 49 °F 86 °F (2012)
Min Temperature 30 °F 33 °F 12 °F (1951)
Degree Days  
Heating Degree Days 22 24  
Month to date heating degree days 588  
Since 1 July heating degree days 5099  
Cooling Degree Days 0 0  
Month to date cooling degree days 0  
Year to date cooling degree days 0  
Moisture  
Dew Point 34 °F    
Average Humidity 71    
Maximum Humidity 93    
Minimum Humidity 52    
Precipitation  
Precipitation 0.00 in 0.09 in 0.93 in (1932)
Month to date precipitation 1.79  
Year to date precipitation 5.79  
Sea Level Pressure  
Sea Level Pressure 29.87 in    
Wind  
Wind Speed 8 mph (SE)    
Max Wind Speed 17 mph    
Max Gust Speed 26 mph    
Visibility 8 miles    
Events Rain , Snow    
T = Trace of Precipitation, MM = Missing Value Source: NWS Daily Summary

Daily Weather History Graph

Daily Weather History Graph

Search for Another Location

Airport:

Trip Planner

Search our weather history database for the weather conditions in past years. The results will help you decide how hot, cold, wet, or windy it might be!

Date:

Astronomy

Mar. 21, 2014 Rise Set
Actual Time 6:51 AM CDT 7:03 PM CDT
Civil Twilight 6:24 AM CDT 7:31 PM CDT
Nautical Twilight 5:51 AM CDT 8:03 PM CDT
Astronomical Twilight 5:18 AM CDT 8:36 PM CDT
Moon No Moon Rise 9:39 AM CDT (3/21)
Length of Visible Light 13h 07m
Length of Day
12h 11m
Waning Gibbous, 75% of the Moon is Illuminated
Mar 21
Waning Gibbous
Mar 23
Last Quarter
Mar 30
New
Apr 7
First Quarter
Apr 15
Full

Hourly Weather History & Observations

Time (CDT) Temp. Windchill Dew Point Humidity Pressure Visibility Wind Dir Wind Speed Gust Speed Precip Events Conditions
12:15 AM 30.9 °F - 26.4 °F 83% 30.02 in 10.0 mi Calm Calm - N/A   Overcast
12:35 AM 32.0 °F 28.7 °F 26.4 °F 80% 30.03 in 10.0 mi ESE 3.5 mph - N/A   Overcast
12:55 AM 33.4 °F 29.1 °F 26.4 °F 75% 30.02 in 10.0 mi East 4.6 mph - N/A   Overcast
1:15 AM 34.7 °F 28.8 °F 25.7 °F 70% 30.02 in 10.0 mi ESE 6.9 mph - N/A   Overcast
1:35 AM 34.7 °F 26.4 °F 26.6 °F 72% 30.01 in 4.0 mi ESE 11.5 mph - N/A Snow Light Snow
1:55 AM 34.2 °F 29.0 °F 27.9 °F 78% 30.02 in 7.0 mi SSE 5.8 mph - N/A Snow Light Snow
2:15 AM 33.8 °F 27.7 °F 29.3 °F 84% 30.03 in 7.0 mi SE 6.9 mph - N/A Rain Light Rain
2:35 AM 33.8 °F 27.7 °F 30.2 °F 87% 30.03 in 4.0 mi SE 6.9 mph - N/A Snow Light Snow
2:55 AM 33.1 °F 26.9 °F 30.9 °F 92% 30.01 in 5.0 mi ESE 6.9 mph - N/A   Overcast
3:15 AM 33.1 °F 26.9 °F 31.1 °F 92% 30.01 in 5.0 mi ESE 6.9 mph - N/A   Overcast
3:35 AM 33.3 °F 27.1 °F 31.1 °F 92% 30.01 in 5.0 mi ESE 6.9 mph - N/A Rain Light Rain
3:55 AM 33.4 °F 25.9 °F 31.1 °F 91% 29.99 in 5.0 mi ESE 9.2 mph - N/A Rain Light Rain
4:15 AM 33.3 °F 26.4 °F 31.1 °F 92% 29.98 in 5.0 mi ESE 8.1 mph - N/A   Overcast
4:35 AM 33.1 °F 26.1 °F 30.9 °F 92% 29.97 in 5.0 mi SE 8.1 mph - N/A   Mostly Cloudy
4:55 AM 33.4 °F 28.1 °F 31.1 °F 91% 29.98 in 5.0 mi SE 5.8 mph - N/A   Mostly Cloudy
5:15 AM 33.3 °F 27.1 °F 30.9 °F 91% 29.98 in 5.0 mi SE 6.9 mph - N/A   Overcast
5:35 AM 33.3 °F 27.1 °F 30.7 °F 90% 29.97 in 5.0 mi ESE 6.9 mph - N/A   Overcast
5:55 AM 32.9 °F 25.9 °F 30.2 °F 90% 29.97 in 5.0 mi SE 8.1 mph - N/A   Scattered Clouds
6:15 AM 32.2 °F 26.7 °F 30.0 °F 92% 29.97 in 5.0 mi ESE 5.8 mph - N/A   Clear
6:35 AM 32.0 °F 26.4 °F 29.7 °F 91% 29.97 in 4.0 mi East 5.8 mph - N/A   Clear
6:55 AM 32.0 °F 26.4 °F 29.7 °F 91% 29.98 in 3.0 mi ESE 5.8 mph - N/A   Clear
7:15 AM 32.0 °F 26.4 °F 29.8 °F 92% 29.98 in 3.0 mi East 5.8 mph - N/A   Clear
7:35 AM 32.0 °F 26.4 °F 30.2 °F 93% 29.98 in 3.0 mi East 5.8 mph - N/A   Clear
7:55 AM 32.9 °F 27.5 °F 30.7 °F 92% 29.98 in 3.0 mi East 5.8 mph - N/A   Scattered Clouds
8:15 AM 33.1 °F 26.1 °F 31.1 °F 92% 29.98 in 4.0 mi ESE 8.1 mph - N/A   Scattered Clouds
8:35 AM 34.0 °F 26.6 °F 31.5 °F 90% 29.98 in 4.0 mi ESE 9.2 mph - N/A   Clear
8:55 AM 34.7 °F 26.4 °F 31.6 °F 89% 29.97 in 5.0 mi ESE 11.5 mph - N/A   Clear
9:15 AM 36.3 °F 29.5 °F 32.0 °F 84% 29.96 in 5.0 mi ESE 9.2 mph - N/A   Clear
9:35 AM 37.9 °F 31.5 °F 32.5 °F 81% 29.96 in 5.0 mi ESE 9.2 mph - N/A   Haze
9:55 AM 39.2 °F 32.5 °F 32.7 °F 78% 29.96 in 7.0 mi SE 10.4 mph - N/A   Clear
10:15 AM 40.6 °F 34.8 °F 33.1 °F 74% 29.96 in 7.0 mi ESE 9.2 mph - N/A   Clear
10:35 AM 41.7 °F 35.6 °F 34.3 °F 75% 29.95 in 10.0 mi ESE 10.4 mph - N/A   Clear
10:55 AM 42.3 °F 36.8 °F 33.8 °F 72% 29.95 in 10.0 mi ESE 9.2 mph - N/A   Clear
11:15 AM 43.7 °F 37.7 °F 34.5 °F 70% 29.94 in 10.0 mi SE 11.5 mph - N/A   Clear
11:35 AM 45.0 °F 40.1 °F 35.1 °F 68% 29.93 in 10.0 mi SE 9.2 mph 17.3 mph N/A   Clear
11:55 AM 46.4 °F 41.9 °F 35.8 °F 67% 29.91 in 10.0 mi SE 9.2 mph - N/A   Clear
12:15 PM 47.1 °F - 35.6 °F 64% 29.90 in 10.0 mi ESE 13.8 mph - N/A   Clear
12:35 PM 48.6 °F - 37.4 °F 65% 29.87 in 10.0 mi ESE 12.7 mph 17.3 mph N/A   Clear
12:55 PM 49.8 °F - 37.6 °F 63% 29.87 in 10.0 mi ESE 11.5 mph 16.1 mph N/A   Clear
1:15 PM 50.9 °F - 37.2 °F 59% 29.86 in 10.0 mi SE 10.4 mph - N/A   Clear
1:35 PM 52.0 °F - 37.4 °F 58% 29.85 in 10.0 mi SSE 10.4 mph - N/A   Clear
1:55 PM 52.9 °F - 38.1 °F 57% 29.83 in 10.0 mi SSE 12.7 mph 17.3 mph N/A   Clear
2:15 PM 53.8 °F - 39.2 °F 58% 29.83 in 10.0 mi South 16.1 mph - N/A   Clear
2:35 PM 54.5 °F - 39.0 °F 56% 29.81 in 10.0 mi SSE 12.7 mph 19.6 mph N/A   Clear
2:55 PM 54.5 °F - 38.8 °F 56% 29.81 in 10.0 mi South 16.1 mph 24.2 mph N/A   Clear
3:15 PM 54.9 °F - 39.0 °F 55% 29.80 in 10.0 mi South 15.0 mph 20.7 mph N/A   Clear
3:35 PM 55.4 °F - 39.6 °F 55% 29.78 in 10.0 mi South 16.1 mph 21.9 mph N/A   Clear
3:55 PM 56.5 °F - 40.5 °F 55% 29.76 in 10.0 mi South 15.0 mph 18.4 mph N/A   Clear
4:15 PM 56.3 °F - 40.1 °F 55% 29.74 in 10.0 mi South 12.7 mph - N/A   Clear
4:35 PM 56.1 °F - 40.8 °F 57% 29.75 in 10.0 mi SSW 11.5 mph - N/A   Scattered Clouds
4:55 PM 56.5 °F - 39.7 °F 54% 29.74 in 10.0 mi SSW 11.5 mph 17.3 mph N/A   Mostly Cloudy
5:15 PM 56.3 °F - 39.7 °F 54% 29.75 in 10.0 mi SW 10.4 mph - N/A   Overcast
5:35 PM 55.9 °F - 38.8 °F 53% 29.69 in 10.0 mi SE 6.9 mph - N/A   Overcast
5:55 PM 54.0 °F - 41.2 °F 62% 29.70 in 10.0 mi South 9.2 mph - N/A   Mostly Cloudy
6:15 PM 54.3 °F - 41.2 °F 61% 29.69 in 10.0 mi South 8.1 mph - N/A   Scattered Clouds
6:35 PM 54.1 °F - 41.0 °F 61% 29.70 in 10.0 mi South 6.9 mph - N/A   Mostly Cloudy
6:55 PM 53.6 °F - 41.0 °F 62% 29.69 in 10.0 mi South 9.2 mph - N/A   Overcast
7:15 PM 53.8 °F - 41.0 °F 62% 29.69 in 10.0 mi SSW 8.1 mph - N/A   Overcast
7:35 PM 53.6 °F - 41.4 °F 63% 29.69 in 10.0 mi WNW 5.8 mph - N/A   Overcast
7:55 PM 52.7 °F - 41.2 °F 65% 29.71 in 10.0 mi West 8.1 mph - N/A   Overcast
8:15 PM 55.6 °F - 39.2 °F 54% 29.72 in 10.0 mi West 12.7 mph 20.7 mph N/A   Overcast
8:35 PM 54.9 °F - 37.6 °F 52% 29.72 in 10.0 mi West 17.3 mph 26.5 mph N/A   Overcast
8:55 PM 53.8 °F - 37.6 °F 54% 29.73 in 10.0 mi WNW 15.0 mph 24.2 mph N/A   Overcast
9:15 PM 52.9 °F - 37.9 °F 57% 29.73 in 10.0 mi WNW 13.8 mph 20.7 mph N/A   Overcast
9:35 PM 51.8 °F - 37.4 °F 58% 29.74 in 10.0 mi WNW 13.8 mph 25.3 mph N/A   Overcast
9:55 PM 50.0 °F - 37.4 °F 62% 29.75 in 10.0 mi WNW 11.5 mph 19.6 mph N/A Rain Light Rain
10:15 PM 49.3 °F - 35.2 °F 58% 29.76 in 10.0 mi WNW 13.8 mph 21.9 mph N/A   Overcast
10:35 PM 48.4 °F - 32.9 °F 55% 29.78 in 10.0 mi WNW 13.8 mph 23.0 mph N/A   Overcast
10:55 PM 48.2 °F - 31.6 °F 53% 29.79 in 10.0 mi NW 13.8 mph 25.3 mph N/A   Overcast
11:15 PM 47.1 °F - 30.9 °F 53% 29.79 in 10.0 mi WNW 11.5 mph 18.4 mph N/A   Mostly Cloudy
11:35 PM 46.6 °F - 30.2 °F 53% 29.80 in 10.0 mi West 9.2 mph 16.1 mph N/A   Clear
11:55 PM 45.5 °F 38.6 °F 31.3 °F 58% 29.81 in 10.0 mi WNW 16.1 mph 21.9 mph N/A   Clear